Location: Gdynia
(54.5193°N, 18.5395°E)
Time: 23:32:38
(UTC+01:00)

ISS - Pass Details

Date: 02 February 2019
Orbit: 403 x 411 km, 51.6° (Epoch: 18 February)

Event Time Altitude Azimuth Distance (km) Brightness Sun altitude
Rises 18:04:55 0° 268° (W) 2,336 1.9 -14.3°
Reaches altitude 10° 18:07:03 10° 262° (W) 1,476 0.4 -14.6°
Maximum altitude 18:10:15 49° 187° (S) 542 -3.2 -15.1°
Enters shadow 18:11:44 27° 126° (SE) 837 -2.7 -15.3°
